FW8074 Weather Reports


Display with metric or nautical units.
time (UTC)temp
F
wind
direction
speed
MPH
gust
MPH
rain 1hr
in
rain 24hr
in
rain mn
in
humidity
%
barometer
mb
20260831073110 72 0 0.0 0.0 0.00 0.00 0.00 99 1016.2
20260831071605 72 0 0.0 0.0 0.00 0.00 0.00 99 1016.2
20260831070108 72 0 0.0 0.0 0.00 0.00 0.00 99 1016.1
20260831064604 72 0 0.0 0.0 0.00 0.00 0.00 99 1016.3
20260831063105 73 0 0.0 0.0 0.00 0.00 0.00 99 1016.7
20260831061605 73 0 0.0 0.0 0.00 0.00 0.00 99 1016.6
20260831060112 73 0 0.0 0.0 0.00 0.00 0.00 99 1016.6
20260831054607 73 0 0.0 0.0 0.00 0.00 0.00 99 1016.9
20260831053101 73 0 0.0 0.0 0.00 0.00 0.00 99 1017.1
20260831051612 73 0 0.0 0.0 0.00 0.00 0.00 98 1017.1
20260831050115 73 0 0.0 0.0 0.00 0.00 0.00 98 1017.2
20260831044617 73 0 0.0 0.0 0.00 0.00 0.00 98 1017.2
20260831043110 74 0 0.0 0.0 0.00 0.00 0.00 98 1017.1
20260831041603 74 0 0.0 0.0 0.00 0.00 0.00 98 1017.2
20260831040107 74 0 0.0 0.0 0.00 0.00 0.00 98 1017.0
20260831034607 74 0 0.0 0.0 0.00 0.00 0.00 98 1017.0
20260831033120 75 0 0.0 0.0 0.00 0.00 0.00 98 1017.1
20260831031609 75 0 0.0 0.0 0.00 0.00 0.00 97 1017.1
20260831030127 75 0 0.0 0.0 0.00 0.00 0.00 97 1017.1
20260831024621 75 0 0.0 0.0 0.00 0.00 0.00 97 1017.1
20260831023106 76 0 0.0 0.0 0.00 0.00 0.00 96 1016.9
20260831021607 76 0 0.0 0.0 0.00 0.00 0.00 96 1017.1
20260831020112 76 0 0.0 0.0 0.00 0.00 0.00 96 1017.0
20260831014604 77 0 0.0 0.0 0.00 0.00 0.00 95 1016.8
20260831013101 77 0 0.0 0.0 0.00 0.00 0.00 95 1016.7
20260831011608 77 0 0.0 0.0 0.00 0.00 0.00 94 1016.7
20260831010109 78 0 0.0 0.0 0.00 0.00 0.00 93 1016.6
20260831004606 78 0 0.0 0.0 0.00 0.00 0.00 92 1016.5
20260831003104 79 0 0.0 0.0 0.00 0.00 0.00 92 1016.7
20260831001611 79 0 0.0 0.0 0.00 0.00 0.00 91 1016.6
20260831000107 80 0 0.0 0.0 0.00 0.00 0.00 89 1016.6
20260830234605 81 0 0.0 0.0 0.00 0.00 0.00 89 1016.5
20260830233105 81 0 0.0 0.0 0.00 0.00 0.00 87 1016.5
20260830231608 82 0 0.0 0.0 0.00 0.00 0.00 86 1016.4
20260830230106 82 0 0.0 0.0 0.00 0.00 0.00 85 1016.6
20260830224607 83 0 0.0 0.0 0.00 0.00 0.00 82 1016.6
20260830223106 83 0 0.0 0.0 0.00 0.00 0.00 83 1016.6
20260830221606 83 0 0.0 0.0 0.00 0.00 0.00 81 1016.5
20260830220108 84 0 0.0 0.0 0.00 0.00 0.00 81 1016.5
20260830214629 84 0 0.0 0.0 0.00 0.00 0.00 77 1016.5
20260830213105 85 0 0.0 0.0 0.00 0.00 0.00 77 1016.6
20260830211607 84 0 0.0 6.0 0.00 0.00 0.00 76 1016.5
20260830210108 84 217 1.0 5.0 0.00 0.00 0.00 76 1016.6
20260830204605 84 0 0.0 0.0 0.00 0.00 0.00 76 1016.6
20260830203103 85 0 0.0 0.0 0.00 0.00 0.00 74 1017.1
20260830201607 85 0 0.0 0.0 0.00 0.00 0.00 78 1017.2
20260830200109 84 0 0.0 4.0 0.00 0.00 0.00 79 1017.2
20260830194608 84 0 0.0 3.0 0.00 0.00 0.00 80 1017.4
20260830193131 84 0 0.0 4.0 0.00 0.00 0.00 77 1017.5
20260830191606 84 0 1.0 9.0 0.00 0.00 0.00 77 1017.5
20260830190106 84 0 0.0 0.0 0.00 0.00 0.00 79 1017.7
20260830184605 84 0 0.0 0.0 0.00 0.00 0.00 79 1017.9
20260830183108 84 0 0.0 0.0 0.00 0.00 0.00 79 1017.9
20260830181610 83 0 0.0 5.0 0.00 0.00 0.00 81 1017.8
20260830180112 83 117 1.0 4.0 0.00 0.00 0.00 80 1018.2
20260830174618 83 0 0.0 5.0 0.00 0.00 0.00 82 1018.4
20260830173117 84 0 0.0 5.0 0.00 0.00 0.00 79 1018.5
20260830171610 83 0 1.0 7.0 0.00 0.00 0.00 80 1018.7
20260830170110 83 58 0.0 0.0 0.00 0.00 0.00 80 1018.8
20260830164605 81 0 0.0 0.0 0.00 0.00 0.00 84 1019.2
20260830163107 81 0 0.0 0.0 0.00 0.00 0.00 85 1019.3
20260830161606 79 0 0.0 0.0 0.00 0.00 0.00 87 1019.3
20260830160105 79 0 0.0 0.0 0.00 0.00 0.00 90 1019.6
20260830154600 78 199 0.0 5.0 0.00 0.00 0.00 91 1019.8
20260830153103 77 0 0.0 4.0 0.00 0.00 0.00 93 1019.9
20260830151605 76 0 0.0 0.0 0.00 0.00 0.00 96 1019.7
20260830150106 75 0 0.0 0.0 0.00 0.00 0.00 96 1019.9
20260830144610 75 0 0.0 0.0 0.00 0.00 0.00 96 1020.0
20260830143102 74 0 0.0 2.0 0.00 0.00 0.00 97 1019.8
20260830141606 74 69 1.0 3.0 0.00 0.00 0.00 97 1019.8
20260830140106 74 0 0.0 4.0 0.00 0.00 0.00 98 1019.5
20260830134614 74 72 1.0 5.0 0.00 0.00 0.00 98 1019.2
20260830133113 73 0 1.0 6.0 0.00 0.00 0.00 99 1019.5
20260830131607 73 0 0.0 3.0 0.00 0.00 0.00 99 1019.6
20260830130108 72 99 0.0 4.0 0.00 0.00 0.00 99 1019.8
20260830124602 72 77 2.0 7.0 0.00 0.00 0.00 99 1019.5
20260830123108 72 0 1.0 3.0 0.00 0.00 0.00 99 1019.4
20260830121607 72 100 0.0 5.0 0.00 0.00 0.00 99 1019.2
20260830120106 72 21 0.0 1.0 0.00 0.00 0.00 99 1019.4
20260830114613 72 142 0.0 0.0 0.00 0.00 0.00 99 1019.2
20260830113102 72 0 0.0 0.0 0.00 0.00 0.00 99 1019.4
20260830111606 72 0 0.0 1.0 0.00 0.00 0.00 99 1019.1
20260830110106 71 0 0.0 0.0 0.00 0.00 0.00 99 1018.9
20260830104617 71 0 0.0 0.0 0.00 0.00 0.00 99 1018.8
20260830103118 72 0 0.0 0.0 0.00 0.00 0.00 99 1018.6
20260830101611 72 0 0.0 0.0 0.00 0.00 0.00 99 1018.5
20260830100110 72 0 0.0 0.0 0.00 0.00 0.00 99 1018.6
20260830094601 72 0 0.0 0.0 0.00 0.00 0.00 99 1018.5
20260830093105 72 0 0.0 0.0 0.00 0.00 0.00 99 1018.3
20260830091604 72 0 0.0 0.0 0.00 0.00 0.00 99 1018.2
20260830090104 71 0 0.0 0.0 0.00 0.00 0.00 99 1018.2
20260830084604 71 0 0.0 0.0 0.00 0.00 0.00 99 1018.0
20260830083109 71 0 0.0 0.0 0.00 0.00 0.00 99 1018.0
20260830081559 72 0 0.0 0.0 0.00 0.00 0.00 99 1017.9
20260830080120 72 0 0.0 0.0 0.00 0.00 0.00 98 1018.0
20260830074603 72 0 0.0 0.0 0.00 0.00 0.00 98 1018.3